Regional Weather Roundup
Issued by NWS Midland/Odessa, TX

Skip options and go directly to product.
Home | Oldest Version | Previous Version | Current Version | All | Text Only | Save Text | Print | Product List | Glossary Off

Skip product version selection by date and time.   

337
ASUS44 KMAF 220010
RWRMAF
MIDLAND AREA WEATHER ROUNDUP
NATIONAL WEATHER SERVICE MIDLAND TX
600 PM CST FRI NOV 21 2014

...IN SOUTHWEST TEXAS AND SOUTHEAST NEW MEXICO...

CITY           SKY/WX    TMP DP  RH WIND       PRES   REMARKS
ALPINE         PTCLDY    62  34  35 S5        30.02R
ANDREWS        FAIR      60  43  54 SE3       29.97S
ARTESIA        NOT AVBL
BIG SPRING     CLEAR     64  47  53 SE8       29.99R
CARLSBAD       PTCLDY    61  29  29 SW5       29.93R
DRYDEN           N/A     64  57  78 E9        29.94S
FORT STOCKTON  CLEAR     58  50  75 SE21G32   29.94R
GUAD PASS      MOCLDY    54  27  35 NE21      30.02R
HOBBS          CLEAR     61  27  27 SE5       29.97S
MARFA          MOCLDY    61  27  27 S3        30.00S
MIDLAND AIRPK  CLEAR     66  49  53 SE7       29.97R
MIDLAND INTL   CLEAR     64  49  57 SE9       29.96S
ODESSA         CLEAR     63  48  58 SE10      29.96S
PECOS          PTCLDY    64  48  56 E14       29.90R
PRESIDIO       FAIR      69  41  36 SW5       29.88S
SEMINOLE       PTCLDY    60  38  43 SE7       29.98S
SNYDER         MOCLDY    64  47  54 SE7       29.99R
WINK           PTCLDY    66  46  48 SE15      29.92R
$$
...OTHER STATIONS IN TEXAS...

CITY           SKY/WX    TMP DP  RH WIND       PRES   REMARKS
ABILENE        MOCLDY    68  53  58 E6        29.98S
AMARILLO       MOCLDY    52  38  58 SE12      29.98R
AUSTIN         CLOUDY    69  67  93 SE7       30.01R
BROWNSVILLE    PTCLDY    73  67  81 SE12      30.00R
CORPUS CHRISTI MOCLDY    72  66  81 SE14      30.00F
DALLAS FTW     CLOUDY    64  61  90 SE14      30.04S
DEL RIO        PTCLDY    66  61  84 SE6       29.94S
EL PASO        CLOUDY    65  27  23 NE6       29.92S
HOUSTON INT    CLOUDY    64  63  96 SE12      30.11S
LUBBOCK        CLOUDY    55  36  48 SE9       29.98S
SAN ANGELO     MOCLDY    70  53  54 S7        29.95S
SAN ANTONIO    CLOUDY    70  67  90 S8        30.01R
WACO           CLOUDY    67  63  87 SE13      30.04R
WICHITA FALLS  NOT AVBL
$$
...OTHER LOCATIONS IN NEW MEXICO...

CITY           SKY/WX    TMP DP  RH WIND       PRES   REMARKS
ALAMAGORDO     MOCLDY    57  23  26 N5        29.97R
ALBUQUERQUE    CLOUDY    50  15  24 NE3       30.02R
CANNON AFB     PTCLDY    56  21  25 W6        29.98R
CLOVIS         PTCLDY    54  21  28 NW5       29.97R
HOLLOMAN AFB   MOCLDY    53  21  28 NW5       29.96R
ROSWELL        MOCLDY    58  29  33 N6        29.95R
RUIDOSO        CLOUDY    46  19  34 SW9       30.06S
SANTA FE       CLOUDY    46  15  28 NW3       30.04R
TRUTH OR CONSE CLOUDY    55  22  27 NE3       29.97R
TUCUMCARI      CLOUDY    52  23  32 S7        29.94R
$$

USA.gov is the U.S. government's official web portal to all federal, state and local government web resources and services.